Simultaneous Nadir Overpasses (SNOs) Predictions

Prediction of SNOs between LANDSAT-8 and METOP-B Satellite Orbit:

Table of predicted SNOs for the next 14.0 days since TLE Epoch: 7/7/2017
Index Date (LANDSAT-8) Time (LANDSAT-8) Lat,Lon (LANDSAT-8) SZA (LANDSAT-8 ) Date (METOP-B) Time (METOP-B) Lat,Lon (METOP-B) SZA (METOP-B ) Distance(km) Time Diff (sec)
1 07/08/2017 20:11:20 -81.19, 98.19 119.06 07/08/2017 20:10:24 -81.19, 98.36 119.07 2.88 56
2 07/08/2017 21:00:46 81.19, -94.04 60.97 07/08/2017 21:01:04 81.20, -93.92 60.99 2.19 18
3 07/11/2017 15:45:36 -81.18, 164.49 118.73 07/11/2017 15:44:45 -81.18, 164.61 118.74 2.05 51
4 07/11/2017 16:35:01 81.21, -27.40 61.35 07/11/2017 16:35:24 81.20, -27.31 61.36 1.49 23
5 07/14/2017 11:19:50 -81.19,-128.86 118.30 07/14/2017 11:19:04 -81.19,-128.76 118.31 1.60 46
6 07/14/2017 12:09:16 81.20, 38.85 61.72 07/14/2017 12:09:44 81.20, 38.90 61.74 0.88 28
7 07/17/2017 06:54:06 -81.18, -62.60 117.88 07/17/2017 06:53:25 -81.18, -62.54 117.89 1.20 41
8 07/17/2017 07:43:31 81.20, 105.44 62.19 07/17/2017 07:44:04 81.20, 105.47 62.21 0.50 33
9 07/20/2017 02:28:21 -81.19, 3.99 117.36 07/20/2017 02:27:45 -81.19, 4.06 117.37 1.16 36




NCC Satellite Simultaneous Nadir Overpasses (SNOs) Prediction Service
